EW3517 Weather Reports


Display with metric or nautical units.
time (UTC)temp
F
wind
direction
speed
MPH
gust
MPH
rain 1hr
in
rain 24hr
in
rain mn
in
humidity
%
barometer
mb
20260502151519 62 245 0.0 0.0 0.00 0.00 0.00 54 1019.1
20260502123054 52 136 0.0 0.0 0.00 0.00 0.00 70 1018.5
20260502121554 51 150 0.0 0.0 0.00 0.00 0.00 71 1018.2
20260502114605 51 116 0.0 0.0 0.00 0.00 0.00 69 1017.8
20260502113051 52 115 0.0 0.0 0.00 0.00 0.00 68 1018.0
20260502111554 52 115 0.0 0.0 0.00 0.00 0.00 67 1018.1
20260502110050 53 115 0.0 0.0 0.00 0.00 0.00 65 1018.0
20260502104552 54 115 0.0 0.0 0.00 0.00 0.00 64 1017.8
20260502103049 54 31 0.0 0.0 0.00 0.00 0.00 65 1018.4
20260502101616 53 17 0.0 0.0 0.00 0.00 0.00 66 1018.7
20260502071529 53 80 0.0 0.0 0.00 0.00 0.00 63 1017.0
20260502070043 53 80 0.0 0.0 0.00 0.00 0.00 63 1016.9
20260502064523 53 80 0.0 0.0 0.00 0.00 0.00 62 1016.9
20260502063022 53 80 0.0 0.0 0.00 0.00 0.00 63 1017.0
20260502061521 53 80 0.0 0.0 0.00 0.00 0.00 65 1017.0
20260502060019 54 80 0.0 0.0 0.00 0.00 0.00 63 1017.2
20260502054517 54 80 0.0 0.0 0.00 0.00 0.00 63 1017.0
20260502053015 54 80 0.0 0.0 0.00 0.00 0.00 63 1017.0
20260502051512 55 80 0.0 0.0 0.00 0.00 0.00 61 1017.0
20260502050012 55 80 0.0 0.0 0.00 0.00 0.00 60 1017.0
20260502044512 56 80 0.0 0.0 0.00 0.00 0.00 62 1016.9
20260502043008 55 79 0.0 0.0 0.00 0.00 0.00 63 1016.9
20260502041507 56 79 0.0 0.0 0.00 0.00 0.00 61 1017.0
20260502040007 57 79 0.0 0.0 0.00 0.00 0.00 59 1016.9
20260502034512 58 79 0.0 0.0 0.00 0.00 0.00 56 1016.8
20260502033008 58 79 0.0 0.0 0.00 0.00 0.00 56 1016.6
20260502031505 59 79 0.0 0.0 0.00 0.00 0.00 54 1016.7
20260502030005 59 79 0.0 0.0 0.00 0.00 0.00 53 1016.6
20260502024504 60 79 0.0 0.0 0.00 0.00 0.00 52 1016.5
20260502023004 60 79 0.0 0.0 0.00 0.00 0.00 51 1016.3
20260502021503 61 79 0.0 0.0 0.00 0.00 0.00 49 1016.2
20260502020005 62 79 0.0 0.0 0.00 0.00 0.00 47 1016.0
20260502014501 63 79 0.0 0.0 0.00 0.00 0.00 44 1015.7
20260502013003 64 79 0.0 0.0 0.00 0.00 0.00 42 1015.5
20260502011609 65 79 0.0 0.0 0.00 0.00 0.00 40 1015.4
20260502010101 66 79 0.0 0.0 0.00 0.00 0.00 38 1015.3
20260502004624 66 79 0.0 0.0 0.00 0.00 0.00 36 1015.1
20260502003102 67 78 0.0 0.0 0.00 0.00 0.00 35 1015.0
20260502001610 68 45 0.0 0.0 0.00 0.00 0.00 34 1014.9
20260502000104 68 5 0.0 0.0 0.00 0.00 0.00 32 1014.9
20260501234608 68 30 0.0 0.0 0.00 0.00 0.00 31 1014.9
20260501233103 69 355 0.0 0.0 0.00 0.00 0.00 31 1014.9
20260501231557 69 19 0.0 0.0 0.00 0.00 0.00 31 1014.7
20260501230059 69 24 0.0 0.0 0.00 0.00 0.00 31 1014.5
20260501224557 69 5 0.0 0.0 0.00 0.00 0.00 32 1014.5
20260501223055 70 339 0.0 0.0 0.00 0.00 0.00 32 1014.5
20260501221555 70 9 0.0 0.0 0.00 0.00 0.00 32 1014.5
20260501220135 70 360 0.0 0.0 0.00 0.00 0.00 31 1014.4
20260501214552 70 360 0.0 0.0 0.00 0.00 0.00 32 1014.4
20260501213059 70 24 0.0 0.0 0.00 0.00 0.00 34 1014.4
20260501211548 71 23 0.0 1.0 0.00 0.00 0.00 33 1014.6
20260501210103 70 10 0.0 0.0 0.00 0.00 0.00 35 1014.6
20260501204548 72 5 0.0 0.0 0.00 0.00 0.00 35 1014.8
20260501203043 71 5 0.0 0.0 0.00 0.00 0.00 36 1015.0
20260501201543 71 355 0.0 0.0 0.00 0.00 0.00 35 1015.2
20260501200037 70 34 0.0 0.0 0.00 0.00 0.00 35 1015.4
20260501194537 70 42 0.0 0.0 0.00 0.00 0.00 37 1015.6
20260501193044 70 32 0.0 0.0 0.00 0.00 0.00 38 1015.9
20260501191532 69 5 0.0 0.0 0.00 0.00 0.00 37 1016.1
20260501190037 70 30 0.0 0.0 0.00 0.00 0.00 37 1016.2
20260501184530 69 9 0.0 0.0 0.00 0.00 0.00 39 1016.3
20260501183026 69 80 0.0 0.0 0.00 0.00 0.00 45 1016.6
20260501181548 68 5 0.0 0.0 0.00 0.00 0.00 43 1016.8
20260501180025 68 124 0.0 0.0 0.00 0.00 0.00 45 1017.0
20260501174522 68 67 0.0 0.0 0.00 0.00 0.00 49 1017.1
20260501173020 68 71 0.0 0.0 0.00 0.00 0.00 51 1017.1
20260501171518 66 126 0.0 0.0 0.00 0.00 0.00 53 1017.2
20260501170021 66 130 0.0 0.0 0.00 0.00 0.00 56 1017.2
20260501164527 66 157 0.0 0.0 0.00 0.00 0.00 56 1017.2
20260501163028 66 159 0.0 0.0 0.00 0.00 0.00 58 1017.2
20260501161509 64 90 0.0 0.0 0.00 0.00 0.00 58 1017.1
20260501160008 64 122 0.0 0.0 0.00 0.00 0.00 61 1017.1
20260501154504 63 123 0.0 0.0 0.00 0.00 0.00 63 1017.0